TimeCST,TemperatureF,Dew PointF,Humidity,Sea Level PressureIn,VisibilityMPH,Wind Direction,Wind SpeedMPH,Gust SpeedMPH,PrecipitationIn,Events,Conditions,WindDirDegrees,DateUTC
12:53 AM,55.0,28.9,37,29.60,10.0,South,16.1,26.5,N/A,,Clear,170,2013-02-18 06:53:00
1:53 AM,55.0,30.0,38,29.55,10.0,South,18.4,26.5,N/A,,Clear,170,2013-02-18 07:53:00
2:53 AM,55.0,30.9,40,29.51,10.0,South,19.6,28.8,N/A,,Clear,180,2013-02-18 08:53:00
3:53 AM,55.9,33.1,42,29.48,10.0,South,21.9,34.5,N/A,,Clear,180,2013-02-18 09:53:00
4:53 AM,55.0,34.0,45,29.51,10.0,South,12.7,20.7,N/A,,Clear,180,2013-02-18 10:53:00
5:53 AM,54.0,36.0,51,29.52,10.0,South,8.1,-,N/A,,Clear,170,2013-02-18 11:53:00
6:53 AM,54.0,37.9,55,29.52,10.0,South,11.5,-,N/A,,Clear,190,2013-02-18 12:53:00
7:53 AM,52.0,39.0,61,29.54,10.0,South,9.2,-,N/A,,Clear,180,2013-02-18 13:53:00
8:53 AM,55.9,42.1,60,29.54,10.0,South,9.2,-,N/A,,Scattered Clouds,190,2013-02-18 14:53:00
9:32 AM,46.0,33.1,61,29.59,10.0,North,21.9,29.9,N/A,,Mostly Cloudy,350,2013-02-18 15:32:00
9:40 AM,46.0,33.1,61,29.59,10.0,North,20.7,26.5,N/A,,Overcast,350,2013-02-18 15:40:00
9:53 AM,44.1,32.0,63,29.60,10.0,North,17.3,28.8,N/A,,Overcast,350,2013-02-18 15:53:00
10:53 AM,44.1,30.9,60,29.66,10.0,NNW,23.0,35.7,N/A,,Overcast,340,2013-02-18 16:53:00
11:53 AM,45.0,32.0,60,29.70,10.0,North,24.2,28.8,N/A,,Overcast,350,2013-02-18 17:53:00
12:53 PM,46.0,30.9,56,29.74,10.0,NNW,18.4,27.6,N/A,,Overcast,340,2013-02-18 18:53:00
1:53 PM,42.1,28.9,60,29.77,10.0,NNW,27.6,38.0,N/A,,Overcast,330,2013-02-18 19:53:00
2:53 PM,39.0,28.9,67,29.82,10.0,NNW,26.5,38.0,N/A,,Overcast,330,2013-02-18 20:53:00
3:53 PM,37.9,25.0,60,29.87,10.0,NW,24.2,40.3,N/A,,Overcast,310,2013-02-18 21:53:00
4:53 PM,37.9,24.1,57,29.91,10.0,NW,25.3,31.1,N/A,,Overcast,310,2013-02-18 22:53:00
5:53 PM,36.0,21.0,55,29.95,10.0,NNW,18.4,31.1,N/A,,Clear,330,2013-02-18 23:53:00
6:53 PM,34.0,19.9,56,30.00,10.0,NW,13.8,-,N/A,,Clear,310,2013-02-19 00:53:00
7:53 PM,33.1,18.0,54,30.05,10.0,WNW,12.7,-,N/A,,Clear,300,2013-02-19 01:53:00
8:53 PM,32.0,16.0,52,30.07,10.0,NW,13.8,-,N/A,,Clear,320,2013-02-19 02:53:00
9:53 PM,30.0,16.0,56,30.11,10.0,WNW,6.9,-,N/A,,Clear,290,2013-02-19 03:53:00
10:53 PM,28.9,16.0,58,30.12,10.0,West,6.9,-,N/A,,Clear,280,2013-02-19 04:53:00
11:53 PM,27.0,16.0,63,30.13,10.0,West,5.8,-,N/A,,Clear,280,2013-02-19 05:53:00